Location: G�ndlingen
(48.0142°N, 7.6396°E)
Time: 02:31:50
(UTC+00:00)

Cosmos 1892 - Pass Details

Date: 05 July 2020
Orbit: 505 x 523 km, 82.5° (Epoch: 04 August)

Event Time Altitude Azimuth Distance (km) Brightness Sun altitude
Exits shadow 21:06:58 16° 118° (ESE) 1,398 4.4 -12.0°
Maximum altitude 21:08:29 20° 88° (E) 1,237 4.3 -12.1°
Drops below altitude 10° 21:11:16 10° 40° (NE) 1,739 5.6 -12.4°
Sets 21:13:49 0° 23° (NNE) 2,635 6.8 -12.6°
